Home   Weather   Löhne   Past weeks

Flag for Germany Past Weather in Löhne, North Rhine-Westphalia, Germany — Yesterday and Last 2 Weeks

Now
30 °F

Chilly.


Feels Like: 24 °F
Forecast: 30 / 37 °F
Wind: 6 mph from South

Location: Bueckeburg

Current Time: Dec 3, 2016 at 6:50:02 pm

Latest Report: Dec 3, 2016 at 5:20 pm


Visibility: N/A

Pressure: 30.30 "Hg

Humidity: 93%

Dew Point: 28 °F

Location of LöhneLocation

Past Weather in Löhne — Graph

°F

Löhne Temperature Yesterday

Maximum temperature yesterday: 46 °F (at 12:20 am)
Minimum temperature yesterday: 30 °F (at 8:20 pm)
Average temperature yesterday: 41 °F

High & Low Weather Summary for the Past Weeks

 TemperatureHumidityPressure
High61 °F (Nov 21, 10:20 pm)100% (Nov 23, 7:20 am)30.60 "Hg (Nov 23, 7:20 am)
Low21 °F (Nov 29, 3:20 am)53% (Dec 2, 1:20 pm)29.33 "Hg (Nov 20, 1:20 pm)
Average41 °F83%30.08 "Hg
* Reported Nov 18 5:20 pm — Dec 3 5:20 pm, Löhne, Weather by CustomWeather, © 2016

Note: Actual official high and low records may vary slightly from our data, if they occured in-between our weather recording intervals... More about our weather records

Advertising

Löhne Weather History for the Previous 24 Hours

Scroll right to see more
 ConditionsComfort  
Time TempWeatherWind HumidityBarometerVisibility
5:20 pm
Sat, Dec 3
30 °FChilly.6 mph93%30.30 "HgN/A
4:20 pm34 °FChilly.2 mph87%30.30 "HgN/A
3:20 pm41 °FQuite cool.2 mph70%30.30 "HgN/A
2:20 pm41 °FQuite cool.2 mph70%30.30 "HgN/A
1:20 pm41 °FQuite cool.3 mph70%30.30 "HgN/A
12:20 pm39 °FChilly.5 mph75%30.30 "HgN/A
11:20 am37 °FChilly.1 mph81%30.30 "HgN/A
10:20 am36 °FChilly.6 mph87%30.30 "HgN/A
9:20 am30 °FChilly.6 mph93%30.30 "HgN/A
8:20 am28 °FChilly.5 mph93%30.27 "HgN/A
7:20 am28 °FChilly.2 mph100%30.27 "Hg5 mi
6:20 am30 °FChilly.6 mph93%30.27 "HgN/A
5:20 am28 °FPassing clouds.6 mph93%30.24 "HgN/A
4:20 am30 °FPassing clouds.5 mph93%30.24 "HgN/A
3:20 am32 °FPassing clouds.6 mph93%30.24 "HgN/A
2:20 am32 °FPassing clouds.5 mph93%30.24 "HgN/A
1:20 am30 °FPassing clouds.6 mph93%30.24 "HgN/A
12:20 am30 °FPassing clouds.6 mph93%30.24 "HgN/A
11:20 pm
Fri, Dec 2
30 °FChilly.6 mph93%30.24 "HgN/A
10:20 pm30 °FChilly.5 mph93%30.24 "HgN/A
9:20 pm30 °FChilly.5 mph93%30.24 "HgN/A
8:20 pm30 °FChilly.5 mph93%30.24 "HgN/A
7:20 pm32 °FChilly.5 mph87%30.21 "HgN/A
6:20 pm32 °FChilly.3 mph93%30.21 "HgN/A
Weather by CustomWeather, © 2016

See weather overviewHow to use our weather pages